TimeEST,TemperatureF,Dew PointF,Humidity,Sea Level PressureIn,VisibilityMPH,Wind Direction,Wind SpeedMPH,Gust SpeedMPH,PrecipitationIn,Events,Conditions,WindDirDegrees,DateUTC
12:15 AM,46.4,41.0,81,30.15,5.0,Calm,Calm,-,N/A,,Haze,0,2012-11-21 05:15:00
12:35 AM,44.2,40.3,86,30.15,5.0,Calm,Calm,-,N/A,,Overcast,0,2012-11-21 05:35:00
12:55 AM,45.1,40.8,85,30.16,5.0,Calm,Calm,-,N/A,,Overcast,0,2012-11-21 05:55:00
1:15 AM,44.8,40.5,85,30.15,5.0,Calm,Calm,-,N/A,,Overcast,0,2012-11-21 06:15:00
1:35 AM,44.6,40.6,86,30.16,5.0,Calm,Calm,-,N/A,,Overcast,0,2012-11-21 06:35:00
1:55 AM,45.3,40.6,84,30.16,5.0,Calm,Calm,-,N/A,,Overcast,0,2012-11-21 06:55:00
2:15 AM,43.9,39.4,84,30.16,5.0,Calm,Calm,-,N/A,,Haze,0,2012-11-21 07:15:00
2:35 AM,43.3,40.1,88,30.17,5.0,Calm,Calm,-,N/A,,Overcast,0,2012-11-21 07:35:00
2:55 AM,44.6,41.0,87,30.16,5.0,Calm,Calm,-,N/A,,Overcast,0,2012-11-21 07:55:00
3:15 AM,44.1,40.8,88,30.15,5.0,Calm,Calm,-,N/A,,Mostly Cloudy,0,2012-11-21 08:15:00
3:35 AM,42.6,39.9,90,30.16,2.5,Calm,Calm,-,N/A,,Clear,0,2012-11-21 08:35:00
3:55 AM,39.7,37.8,93,30.16,0.2,Calm,Calm,-,N/A,Fog,Fog,0,2012-11-21 08:55:00
4:15 AM,37.9,36.3,94,30.16,1.0,Calm,Calm,-,N/A,,Mist,0,2012-11-21 09:15:00
4:35 AM,38.1,36.5,94,30.16,0.2,Calm,Calm,-,N/A,Fog,Fog,0,2012-11-21 09:35:00
4:55 AM,35.2,33.4,93,30.16,0.2,Calm,Calm,-,N/A,Fog,Fog,0,2012-11-21 09:55:00
5:15 AM,36.5,35.2,95,30.16,0.2,Calm,Calm,-,N/A,Fog,Fog,0,2012-11-21 10:15:00
5:35 AM,35.6,34.0,94,30.17,0.2,Calm,Calm,-,N/A,Fog,Fog,0,2012-11-21 10:35:00
5:55 AM,35.6,34.0,94,30.18,0.2,Calm,Calm,-,N/A,Fog,Fog,0,2012-11-21 10:55:00
6:15 AM,34.9,33.6,95,30.19,0.2,Calm,Calm,-,N/A,Fog,Fog,0,2012-11-21 11:15:00
6:35 AM,34.3,33.1,95,30.18,0.2,Calm,Calm,-,N/A,Fog,Fog,0,2012-11-21 11:35:00
6:55 AM,35.2,33.8,94,30.18,0.2,Calm,Calm,-,N/A,Fog,Fog,0,2012-11-21 11:55:00
7:15 AM,34.7,33.4,95,30.19,0.2,Calm,Calm,-,N/A,Fog,Fog,0,2012-11-21 12:15:00
7:35 AM,34.3,33.1,95,30.19,0.2,Calm,Calm,-,N/A,Fog,Fog,0,2012-11-21 12:35:00
7:55 AM,34.2,33.1,96,30.20,0.2,Calm,Calm,-,N/A,Snow,Light Snow,0,2012-11-21 12:55:00
8:15 AM,35.4,34.2,95,30.21,0.2,Calm,Calm,-,N/A,Fog,Fog,0,2012-11-21 13:15:00
8:35 AM,35.6,34.3,95,30.21,0.2,Calm,Calm,-,N/A,Fog,Fog,0,2012-11-21 13:35:00
8:55 AM,36.0,34.9,96,30.21,0.2,Calm,Calm,-,N/A,Fog,Fog,0,2012-11-21 13:55:00
9:15 AM,37.4,36.5,97,30.21,0.2,Calm,Calm,-,N/A,Fog,Fog,0,2012-11-21 14:15:00
9:35 AM,37.2,36.1,96,30.21,0.2,Calm,Calm,-,N/A,Fog,Fog,0,2012-11-21 14:35:00
9:55 AM,38.7,37.6,96,30.22,0.2,Calm,Calm,-,N/A,Fog,Fog,0,2012-11-21 14:55:00
10:15 AM,39.9,38.8,96,30.22,0.2,Calm,Calm,-,N/A,Fog,Fog,0,2012-11-21 15:15:00
10:35 AM,40.8,39.7,96,30.23,0.2,Calm,Calm,-,N/A,Fog,Fog,0,2012-11-21 15:35:00
10:55 AM,41.0,40.1,97,30.22,0.2,Calm,Calm,-,N/A,Fog,Fog,0,2012-11-21 15:55:00
11:15 AM,43.3,42.1,95,30.21,1.2,Calm,Calm,-,N/A,,Mostly Cloudy,0,2012-11-21 16:15:00
11:35 AM,45.7,43.7,93,30.20,4.0,Calm,Calm,-,N/A,,Clear,0,2012-11-21 16:35:00
11:55 AM,48.0,44.8,89,30.19,5.0,Calm,Calm,-,N/A,,Clear,0,2012-11-21 16:55:00
12:16 PM,50.7,45.5,82,30.18,5.0,South,5.8,-,N/A,,Haze,180,2012-11-21 17:16:00
12:35 PM,52.2,46.0,80,30.18,7.0,SSW,5.8,-,N/A,,Clear,210,2012-11-21 17:35:00
12:55 PM,52.9,45.5,76,30.17,7.0,SSW,6.9,-,N/A,,Scattered Clouds,200,2012-11-21 17:55:00
1:15 PM,54.9,45.0,69,30.16,7.0,South,5.8,-,N/A,,Clear,180,2012-11-21 18:15:00
1:35 PM,55.8,45.0,67,30.16,7.0,SW,9.2,-,N/A,,Clear,220,2012-11-21 18:35:00
1:55 PM,56.3,45.0,66,30.16,7.0,SW,9.2,-,N/A,,Clear,220,2012-11-21 18:55:00
2:15 PM,56.5,45.0,65,30.14,7.0,SSW,8.1,-,N/A,,Clear,200,2012-11-21 19:15:00
2:35 PM,56.3,44.6,65,30.13,7.0,South,6.9,-,N/A,,Clear,190,2012-11-21 19:35:00
2:55 PM,56.5,43.7,62,30.14,7.0,SW,9.2,-,N/A,,Clear,230,2012-11-21 19:55:00
3:15 PM,56.3,43.7,63,30.13,7.0,SW,9.2,-,N/A,,Clear,230,2012-11-21 20:15:00
3:35 PM,56.3,43.7,63,30.13,7.0,SW,8.1,-,N/A,,Clear,230,2012-11-21 20:35:00
3:55 PM,55.6,43.7,64,30.13,7.0,South,5.8,-,N/A,,Clear,190,2012-11-21 20:55:00
4:15 PM,54.5,43.2,66,30.12,7.0,SSW,6.9,-,N/A,,Clear,200,2012-11-21 21:15:00
4:35 PM,53.8,43.0,67,30.12,7.0,South,5.8,-,N/A,,Clear,190,2012-11-21 21:35:00
4:55 PM,52.7,43.0,70,30.12,7.0,SSW,5.8,-,N/A,,Clear,200,2012-11-21 21:55:00
5:15 PM,52.0,42.8,71,30.12,7.0,SSW,5.8,-,N/A,,Clear,210,2012-11-21 22:15:00
5:35 PM,50.5,43.0,75,30.12,7.0,SW,5.8,-,N/A,,Clear,220,2012-11-21 22:35:00
5:55 PM,49.8,43.0,77,30.11,7.0,SSW,3.5,-,N/A,,Clear,210,2012-11-21 22:55:00
6:15 PM,49.5,43.2,79,30.11,7.0,Calm,Calm,-,N/A,,Clear,0,2012-11-21 23:15:00
6:35 PM,48.6,42.8,80,30.12,7.0,Calm,Calm,-,N/A,,Clear,0,2012-11-21 23:35:00
6:55 PM,48.0,41.9,79,30.12,7.0,SSW,4.6,-,N/A,,Clear,200,2012-11-21 23:55:00
7:15 PM,47.7,42.3,82,30.11,7.0,SSW,3.5,-,N/A,,Clear,200,2012-11-22 00:15:00
7:35 PM,47.3,42.1,82,30.11,7.0,South,3.5,-,N/A,,Clear,180,2012-11-22 00:35:00
7:55 PM,47.1,42.1,83,30.11,5.0,South,3.5,-,N/A,,Haze,190,2012-11-22 00:55:00
8:15 PM,46.6,41.9,84,30.11,5.0,SSW,3.5,-,N/A,,Haze,200,2012-11-22 01:15:00
8:36 PM,46.4,41.9,84,30.11,5.0,South,3.5,-,N/A,,Clear,190,2012-11-22 01:36:00
8:55 PM,46.4,42.1,85,30.10,5.0,SSW,5.8,-,N/A,,Clear,200,2012-11-22 01:55:00
9:15 PM,46.4,42.1,85,30.11,5.0,South,3.5,-,N/A,,Clear,190,2012-11-22 02:15:00
9:36 PM,45.7,41.9,87,30.10,5.0,South,4.6,-,N/A,,Clear,180,2012-11-22 02:36:00
9:55 PM,45.1,41.5,87,30.09,5.0,South,5.8,-,N/A,,Clear,180,2012-11-22 02:55:00
10:15 PM,44.6,41.2,88,30.09,4.0,South,5.8,-,N/A,,Clear,170,2012-11-22 03:15:00
10:35 PM,44.6,41.4,88,30.08,4.0,South,4.6,-,N/A,,Clear,170,2012-11-22 03:35:00
10:55 PM,44.1,41.2,90,30.07,4.0,South,5.8,-,N/A,,Clear,170,2012-11-22 03:55:00
11:15 PM,45.0,41.9,89,30.07,4.0,South,3.5,-,N/A,,Clear,180,2012-11-22 04:15:00
11:35 PM,44.8,41.5,88,30.07,4.0,South,4.6,-,N/A,,Clear,190,2012-11-22 04:35:00
11:55 PM,44.8,41.9,90,30.07,4.0,South,3.5,-,N/A,,Clear,170,2012-11-22 04:55:00